STARLINK-31618 (59528 NORAD) Tracking and Keplerian Element Data

This shows tracking and keplerian element data for the satellite.

Feedback or suggestion? Click here.




ElementValue
Catalog59528
NameSTARLINK-31618
Epoch Orbit919
Epoch Day159.96903813
Epoch Year2024
RAAN3.2818
Inclination43.0013
Eccentricity9.3E-05
Argument of Perigee283.3252
Mean Anonmoly76.7501
Mean Motion15.40703332
Decay Rate2.884E-05
L11 59528U 24073T 24159.96903813 .00002884 00000+0 76258-4 0 9998
L22 59528 43.0013 3.2818 0000930 283.3252 76.7501 15.40703332 9194



Live tracking and technical data element details for STARLINK-31618 (NORAD 59528). STARLINK-31618 can be tracked NOW for your location showing map with azimuth and elevation plus other details from your city location.







IsCatalogInMostPopularTable: catalog: 59528, numindb: 11
Update: records affected: 1



GetName: 59528 STARLINK-31618

Hit Count: updated at: Fri, 14 Jun 2024 19:04:37 GMT